| time (UTC) | temp F | wind direction | speed MPH | gust MPH | rain 1hr in | rain 24hr in | rain mn in | humidity % | barometer mb |
| 20260508004900 | 51 | 97 | 0.0 | 0.0 | 0.00 | 0.18 | 0.18 | 55 | 1011.8 |
| 20260508004356 | 51 | 96 | 0.0 | 0.0 | 0.00 | 0.18 | 0.18 | 54 | 1012.0 |
| 20260508003853 | 52 | 96 | 0.0 | 0.0 | 0.00 | 0.18 | 0.18 | 52 | 1011.9 |
| 20260508003350 | 52 | 96 | 0.0 | 0.0 | 0.00 | 0.18 | 0.18 | 53 | 1011.7 |
| 20260508002847 | 53 | 97 | 0.0 | 0.0 | 0.00 | 0.18 | 0.18 | 52 | 1011.5 |
| 20260508002343 | 53 | 97 | 0.0 | 0.0 | 0.00 | 0.18 | 0.18 | 51 | 1011.6 |
| 20260508001840 | 53 | 96 | 0.0 | 0.0 | 0.00 | 0.18 | 0.18 | 51 | 1011.7 |
| 20260508001336 | 54 | 97 | 0.0 | 0.0 | 0.00 | 0.18 | 0.18 | 50 | 1011.4 |
| 20260508000832 | 54 | 97 | 0.0 | 0.0 | 0.00 | 0.18 | 0.18 | 49 | 1011.4 |
| 20260508000329 | 55 | 96 | 0.0 | 0.0 | 0.00 | 0.18 | 0.18 | 48 | 1011.3 |
| 20260507235825 | 55 | 84 | 0.0 | 1.0 | 0.00 | 0.18 | 0.18 | 48 | 1011.5 |
| 20260507235323 | 56 | 88 | 0.0 | 1.0 | 0.00 | 0.18 | 0.18 | 47 | 1011.5 |
| 20260507234820 | 56 | 84 | 0.0 | 2.0 | 0.00 | 0.18 | 0.18 | 46 | 1011.4 |
| 20260507234317 | 56 | 85 | 0.0 | 1.0 | 0.00 | 0.18 | 0.18 | 46 | 1011.1 |
| 20260507233813 | 57 | 84 | 0.0 | 1.0 | 0.00 | 0.18 | 0.18 | 47 | 1011.2 |
| 20260507233311 | 57 | 84 | 1.0 | 1.0 | 0.00 | 0.18 | 0.18 | 45 | 1011.2 |
| 20260507232809 | 57 | 105 | 1.0 | 3.0 | 0.00 | 0.18 | 0.18 | 45 | 1010.8 |
| 20260507232306 | 57 | 88 | 0.0 | 2.0 | 0.00 | 0.18 | 0.18 | 45 | 1011.1 |
| 20260507231802 | 57 | 89 | 0.0 | 1.0 | 0.00 | 0.18 | 0.18 | 45 | 1010.9 |
| 20260507231259 | 58 | 83 | 0.0 | 1.0 | 0.00 | 0.18 | 0.18 | 45 | 1010.8 |
| 20260507230755 | 58 | 81 | 1.0 | 1.0 | 0.00 | 0.18 | 0.18 | 43 | 1011.1 |
| 20260507230252 | 58 | 52 | 2.0 | 3.0 | 0.00 | 0.18 | 0.18 | 43 | 1011.0 |
| 20260507225752 | 58 | 86 | 0.0 | 2.0 | 0.00 | 0.18 | 0.18 | 43 | 1010.8 |
| 20260507225248 | 58 | 81 | 1.0 | 3.0 | 0.00 | 0.18 | 0.18 | 44 | 1010.9 |
| 20260507224744 | 59 | 81 | 1.0 | 2.0 | 0.00 | 0.18 | 0.18 | 44 | 1010.9 |
| 20260507224241 | 59 | 102 | 2.0 | 2.0 | 0.00 | 0.18 | 0.18 | 43 | 1010.7 |
| 20260507223737 | 60 | 79 | 2.0 | 2.0 | 0.00 | 0.18 | 0.18 | 42 | 1010.7 |
| 20260507223234 | 60 | 74 | 1.0 | 3.0 | 0.00 | 0.18 | 0.18 | 41 | 1010.8 |
| 20260507222731 | 59 | 6 | 4.0 | 5.0 | 0.00 | 0.18 | 0.18 | 42 | 1010.6 |
| 20260507222227 | 60 | 74 | 1.0 | 3.0 | 0.00 | 0.18 | 0.18 | 42 | 1010.9 |
| 20260507221724 | 60 | 73 | 3.0 | 6.0 | 0.00 | 0.18 | 0.18 | 41 | 1010.7 |
| 20260507221220 | 60 | 322 | 3.0 | 5.0 | 0.00 | 0.18 | 0.18 | 41 | 1011.1 |
| 20260507220717 | 60 | 336 | 6.0 | 8.0 | 0.00 | 0.18 | 0.18 | 40 | 1010.7 |
| 20260507220216 | 61 | 65 | 1.0 | 5.0 | 0.00 | 0.18 | 0.18 | 40 | 1010.8 |
| 20260507215711 | 61 | 37 | 3.0 | 7.0 | 0.00 | 0.18 | 0.18 | 40 | 1010.7 |
| 20260507215209 | 62 | 106 | 1.0 | 8.0 | 0.00 | 0.18 | 0.18 | 40 | 1010.9 |
| 20260507214706 | 62 | 91 | 1.0 | 7.0 | 0.00 | 0.18 | 0.18 | 39 | 1010.9 |
| 20260507214203 | 63 | 313 | 1.0 | 6.0 | 0.00 | 0.18 | 0.18 | 40 | 1010.8 |
| 20260507213658 | 62 | 84 | 1.0 | 7.0 | 0.00 | 0.18 | 0.18 | 40 | 1010.7 |
| 20260507213156 | 62 | 48 | 3.0 | 7.0 | 0.00 | 0.18 | 0.18 | 40 | 1010.5 |
| 20260507212652 | 62 | 17 | 4.0 | 7.0 | 0.00 | 0.18 | 0.18 | 40 | 1010.4 |
| 20260507212149 | 62 | 56 | 3.0 | 6.0 | 0.00 | 0.18 | 0.18 | 39 | 1010.4 |
| 20260507211646 | 63 | 40 | 3.0 | 8.0 | 0.00 | 0.18 | 0.18 | 38 | 1010.2 |
| 20260507211141 | 64 | 114 | 1.0 | 5.0 | 0.00 | 0.18 | 0.18 | 39 | 1010.4 |
| 20260507210639 | 63 | 35 | 2.0 | 6.0 | 0.00 | 0.18 | 0.18 | 40 | 1010.5 |
| 20260507210135 | 64 | 55 | 4.0 | 6.0 | 0.00 | 0.18 | 0.18 | 39 | 1010.5 |
| 20260507205632 | 65 | 17 | 3.0 | 5.0 | 0.00 | 0.18 | 0.18 | 38 | 1010.5 |
| 20260507205128 | 64 | 40 | 1.0 | 6.0 | 0.00 | 0.18 | 0.18 | 39 | 1010.5 |
| 20260507204625 | 64 | 55 | 1.0 | 3.0 | 0.00 | 0.18 | 0.18 | 39 | 1010.1 |
| 20260507204122 | 64 | 121 | 2.0 | 5.0 | 0.00 | 0.18 | 0.18 | 40 | 1010.3 |
| 20260507203620 | 63 | 12 | 4.0 | 6.0 | 0.00 | 0.18 | 0.18 | 39 | 1010.5 |
| 20260507203117 | 64 | 41 | 2.0 | 2.0 | 0.00 | 0.18 | 0.18 | 39 | 1010.2 |
| 20260507202613 | 64 | 108 | 2.0 | 6.0 | 0.00 | 0.18 | 0.18 | 39 | 1010.5 |
| 20260507202110 | 64 | 312 | 6.0 | 9.0 | 0.00 | 0.18 | 0.18 | 40 | 1010.3 |
| 20260507201605 | 64 | 53 | 2.0 | 6.0 | 0.00 | 0.18 | 0.18 | 39 | 1010.5 |
| 20260507201102 | 62 | 31 | 2.0 | 5.0 | 0.00 | 0.18 | 0.18 | 39 | 1010.5 |
| 20260507200557 | 64 | 28 | 3.0 | 6.0 | 0.00 | 0.18 | 0.18 | 39 | 1010.5 |
| 20260507200053 | 63 | 71 | 3.0 | 3.0 | 0.00 | 0.18 | 0.18 | 39 | 1010.5 |
| 20260507195551 | 64 | 333 | 2.0 | 5.0 | 0.00 | 0.18 | 0.18 | 40 | 1010.7 |
| 20260507195048 | 63 | 70 | 1.0 | 6.0 | 0.00 | 0.18 | 0.18 | 39 | 1010.6 |
| 20260507194544 | 64 | 4 | 2.0 | 6.0 | 0.00 | 0.18 | 0.18 | 40 | 1010.6 |
| 20260507194040 | 64 | 330 | 2.0 | 5.0 | 0.00 | 0.18 | 0.18 | 40 | 1010.4 |
| 20260507193538 | 63 | 89 | 1.0 | 3.0 | 0.00 | 0.18 | 0.18 | 40 | 1010.9 |
| 20260507193034 | 63 | 324 | 3.0 | 5.0 | 0.00 | 0.18 | 0.18 | 40 | 1010.7 |
| 20260507192530 | 63 | 78 | 1.0 | 5.0 | 0.00 | 0.18 | 0.18 | 41 | 1010.8 |
| 20260507192028 | 62 | 235 | 2.0 | 6.0 | 0.00 | 0.18 | 0.18 | 41 | 1010.9 |
| 20260507191523 | 63 | 46 | 2.0 | 3.0 | 0.00 | 0.18 | 0.18 | 40 | 1010.9 |
| 20260507191020 | 63 | 8 | 3.0 | 5.0 | 0.00 | 0.18 | 0.18 | 42 | 1011.0 |
| 20260507190517 | 62 | 4 | 1.0 | 6.0 | 0.00 | 0.18 | 0.18 | 41 | 1011.3 |
| 20260507190016 | 63 | 43 | 2.0 | 6.0 | 0.00 | 0.18 | 0.18 | 41 | 1011.0 |
| 20260507185514 | 62 | 350 | 2.0 | 8.0 | 0.00 | 0.18 | 0.18 | 41 | 1011.3 |
| 20260507185010 | 63 | 37 | 2.0 | 6.0 | 0.00 | 0.18 | 0.18 | 42 | 1011.2 |
| 20260507184509 | 63 | 92 | 1.0 | 5.0 | 0.00 | 0.18 | 0.18 | 41 | 1011.2 |
| 20260507184006 | 61 | 104 | 2.0 | 5.0 | 0.00 | 0.18 | 0.18 | 42 | 1011.4 |
| 20260507183502 | 62 | 15 | 3.0 | 5.0 | 0.00 | 0.18 | 0.18 | 44 | 1011.3 |
| 20260507182959 | 60 | 142 | 3.0 | 7.0 | 0.00 | 0.18 | 0.18 | 42 | 1011.4 |
| 20260507182455 | 61 | 42 | 2.0 | 5.0 | 0.00 | 0.18 | 0.18 | 40 | 1011.5 |
| 20260507181951 | 62 | 331 | 3.0 | 7.0 | 0.00 | 0.18 | 0.18 | 41 | 1011.7 |
| 20260507181448 | 62 | 96 | 0.0 | 6.0 | 0.00 | 0.18 | 0.18 | 43 | 1011.7 |
| 20260507180944 | 61 | 69 | 1.0 | 5.0 | 0.00 | 0.18 | 0.18 | 42 | 1011.6 |
| 20260507180441 | 59 | 69 | 1.0 | 5.0 | 0.00 | 0.18 | 0.18 | 42 | 1011.6 |
| 20260507175937 | 62 | 286 | 5.0 | 7.0 | 0.00 | 0.18 | 0.18 | 41 | 1011.6 |
| 20260507175434 | 62 | 62 | 3.0 | 8.0 | 0.00 | 0.18 | 0.18 | 41 | 1011.7 |
| 20260507174932 | 63 | 166 | 2.0 | 5.0 | 0.00 | 0.18 | 0.18 | 43 | 1011.8 |
| 20260507174429 | 62 | 135 | 1.0 | 2.0 | 0.00 | 0.18 | 0.18 | 44 | 1011.8 |
| 20260507173926 | 62 | 25 | 2.0 | 6.0 | 0.00 | 0.18 | 0.18 | 42 | 1012.1 |
| 20260507173423 | 61 | 82 | 2.0 | 3.0 | 0.00 | 0.18 | 0.18 | 43 | 1012.2 |
| 20260507172920 | 60 | 86 | 1.0 | 5.0 | 0.00 | 0.18 | 0.18 | 45 | 1012.1 |
| 20260507172416 | 61 | 51 | 3.0 | 5.0 | 0.00 | 0.18 | 0.18 | 42 | 1012.0 |
| 20260507171913 | 61 | 167 | 1.0 | 2.0 | 0.00 | 0.18 | 0.18 | 42 | 1012.0 |
| 20260507171409 | 60 | 93 | 2.0 | 7.0 | 0.00 | 0.18 | 0.18 | 42 | 1012.2 |
| 20260507170907 | 61 | 25 | 2.0 | 6.0 | 0.00 | 0.18 | 0.18 | 41 | 1012.3 |
| 20260507170403 | 60 | 68 | 2.0 | 5.0 | 0.00 | 0.18 | 0.18 | 43 | 1012.6 |
| 20260507165859 | 60 | 234 | 3.0 | 5.0 | 0.00 | 0.18 | 0.18 | 43 | 1012.4 |
| 20260507165355 | 60 | 353 | 3.0 | 11.0 | 0.00 | 0.18 | 0.18 | 43 | 1012.4 |
| 20260507164851 | 60 | 28 | 2.0 | 3.0 | 0.00 | 0.18 | 0.18 | 45 | 1012.4 |
| 20260507164348 | 61 | 70 | 4.0 | 6.0 | 0.00 | 0.18 | 0.18 | 45 | 1012.6 |
| 20260507163845 | 60 | 78 | 1.0 | 3.0 | 0.00 | 0.18 | 0.18 | 46 | 1012.8 |
| 20260507163343 | 60 | 100 | 2.0 | 6.0 | 0.00 | 0.18 | 0.18 | 48 | 1012.8 |
| 20260507162839 | 59 | 19 | 1.0 | 3.0 | 0.00 | 0.18 | 0.18 | 47 | 1012.9 |
| 20260507162335 | 59 | 67 | 1.0 | 3.0 | 0.00 | 0.18 | 0.18 | 48 | 1013.0 |
| 20260507161832 | 59 | 101 | 2.0 | 5.0 | 0.00 | 0.18 | 0.18 | 51 | 1013.0 |
| 20260507161328 | 59 | 109 | 3.0 | 3.0 | 0.00 | 0.18 | 0.18 | 47 | 1012.9 |
| 20260507160825 | 59 | 28 | 2.0 | 5.0 | 0.00 | 0.18 | 0.18 | 50 | 1013.0 |
| 20260507160321 | 59 | 101 | 1.0 | 3.0 | 0.00 | 0.18 | 0.18 | 51 | 1013.0 |
| 20260507155818 | 58 | 17 | 2.0 | 6.0 | 0.00 | 0.18 | 0.18 | 50 | 1013.2 |
| 20260507155313 | 58 | 67 | 2.0 | 2.0 | 0.00 | 0.18 | 0.18 | 51 | 1013.0 |
| 20260507154810 | 58 | 10 | 2.0 | 3.0 | 0.00 | 0.18 | 0.18 | 52 | 1013.3 |
| 20260507154308 | 57 | 128 | 2.0 | 3.0 | 0.00 | 0.18 | 0.18 | 52 | 1013.4 |
| 20260507153804 | 56 | 47 | 3.0 | 3.0 | 0.00 | 0.18 | 0.18 | 50 | 1013.4 |
| 20260507153300 | 56 | 77 | 1.0 | 5.0 | 0.00 | 0.18 | 0.18 | 51 | 1013.5 |
| 20260507152757 | 57 | 47 | 2.0 | 8.0 | 0.00 | 0.18 | 0.18 | 52 | 1013.5 |
| 20260507152253 | 56 | 42 | 3.0 | 11.0 | 0.00 | 0.18 | 0.18 | 53 | 1013.6 |
| 20260507151749 | 55 | 43 | 2.0 | 5.0 | 0.00 | 0.18 | 0.18 | 57 | 1013.8 |
| 20260507151246 | 56 | 111 | 3.0 | 8.0 | 0.00 | 0.18 | 0.18 | 60 | 1013.7 |
| 20260507150743 | 56 | 57 | 1.0 | 2.0 | 0.00 | 0.18 | 0.18 | 64 | 1013.5 |
| 20260507150240 | 55 | 82 | 2.0 | 3.0 | 0.00 | 0.18 | 0.18 | 65 | 1013.5 |
| 20260507145736 | 55 | 77 | 1.0 | 8.0 | 0.00 | 0.18 | 0.18 | 68 | 1013.6 |
| 20260507145232 | 57 | 42 | 3.0 | 5.0 | 0.00 | 0.18 | 0.18 | 72 | 1013.5 |
| 20260507144729 | 56 | 230 | 1.0 | 3.0 | 0.00 | 0.18 | 0.18 | 75 | 1013.4 |
| 20260507144227 | 55 | 87 | 1.0 | 8.0 | 0.00 | 0.18 | 0.18 | 76 | 1013.4 |
| 20260507143723 | 55 | 31 | 5.0 | 7.0 | 0.00 | 0.18 | 0.18 | 78 | 1013.4 |
| 20260507143221 | 56 | 71 | 2.0 | 3.0 | 0.00 | 0.18 | 0.18 | 82 | 1013.5 |
| 20260507142716 | 54 | 77 | 1.0 | 3.0 | 0.00 | 0.18 | 0.18 | 84 | 1013.4 |
| 20260507142213 | 54 | 53 | 1.0 | 5.0 | 0.00 | 0.18 | 0.18 | 85 | 1013.3 |
| 20260507141709 | 54 | 296 | 3.0 | 6.0 | 0.00 | 0.18 | 0.18 | 86 | 1013.5 |
| 20260507141207 | 54 | 42 | 1.0 | 1.0 | 0.00 | 0.18 | 0.18 | 87 | 1013.4 |
| 20260507140703 | 53 | 123 | 1.0 | 2.0 | 0.00 | 0.18 | 0.18 | 88 | 1013.5 |
| 20260507140201 | 53 | 91 | 1.0 | 1.0 | 0.00 | 0.18 | 0.18 | 89 | 1013.6 |
| 20260507135657 | 51 | 86 | 1.0 | 5.0 | 0.00 | 0.18 | 0.18 | 89 | 1013.6 |
| 20260507135155 | 53 | 54 | 2.0 | 3.0 | 0.00 | 0.18 | 0.18 | 89 | 1013.7 |
| 20260507134651 | 52 | 100 | 0.0 | 2.0 | 0.00 | 0.18 | 0.18 | 90 | 1013.7 |
| 20260507134147 | 52 | 41 | 2.0 | 3.0 | 0.00 | 0.18 | 0.18 | 90 | 1014.0 |
| 20260507133643 | 52 | 81 | 1.0 | 1.0 | 0.00 | 0.18 | 0.18 | 91 | 1013.7 |
| 20260507133141 | 50 | 71 | 1.0 | 8.0 | 0.00 | 0.18 | 0.18 | 91 | 1013.7 |
| 20260507132638 | 51 | 101 | 3.0 | 5.0 | 0.00 | 0.18 | 0.18 | 91 | 1013.7 |
| 20260507132134 | 51 | 62 | 1.0 | 6.0 | 0.00 | 0.18 | 0.18 | 91 | 1013.5 |
| 20260507131631 | 51 | 81 | 1.0 | 5.0 | 0.00 | 0.18 | 0.18 | 91 | 1013.5 |
| 20260507131128 | 51 | 58 | 2.0 | 3.0 | 0.00 | 0.18 | 0.18 | 91 | 1013.4 |
| 20260507130624 | 51 | 108 | 1.0 | 5.0 | 0.00 | 0.18 | 0.18 | 92 | 1013.3 |
| 20260507130123 | 50 | 65 | 3.0 | 6.0 | 0.00 | 0.18 | 0.18 | 92 | 1013.7 |
| 20260507125621 | 50 | 53 | 1.0 | 2.0 | 0.00 | 0.18 | 0.18 | 93 | 1013.7 |
| 20260507125119 | 49 | 88 | 3.0 | 5.0 | 0.00 | 0.18 | 0.18 | 93 | 1013.6 |
| 20260507124614 | 49 | 80 | 1.0 | 2.0 | 0.00 | 0.18 | 0.18 | 93 | 1013.7 |
| 20260507124113 | 49 | 55 | 1.0 | 3.0 | 0.00 | 0.18 | 0.18 | 93 | 1013.8 |
| 20260507123610 | 49 | 58 | 1.0 | 3.0 | 0.00 | 0.18 | 0.18 | 93 | 1013.8 |
| 20260507123107 | 48 | 93 | 0.0 | 5.0 | 0.00 | 0.18 | 0.18 | 94 | 1013.7 |
| 20260507122602 | 48 | 71 | 1.0 | 1.0 | 0.00 | 0.18 | 0.18 | 94 | 1013.7 |
| 20260507122058 | 48 | 74 | 2.0 | 2.0 | 0.00 | 0.18 | 0.18 | 94 | 1013.7 |
| 20260507121554 | 48 | 88 | 1.0 | 2.0 | 0.00 | 0.18 | 0.18 | 94 | 1013.6 |
| 20260507121050 | 48 | 92 | 0.0 | 1.0 | 0.00 | 0.18 | 0.18 | 94 | 1013.6 |
| 20260507120547 | 48 | 58 | 1.0 | 2.0 | 0.00 | 0.18 | 0.18 | 94 | 1013.4 |
| 20260507120044 | 48 | 111 | 0.0 | 1.0 | 0.00 | 0.18 | 0.18 | 94 | 1013.7 |
| 20260507115540 | 47 | 87 | 1.0 | 1.0 | 0.00 | 0.18 | 0.18 | 94 | 1013.3 |
| 20260507115036 | 48 | 103 | 0.0 | 1.0 | 0.00 | 0.18 | 0.18 | 94 | 1013.5 |
| 20260507114532 | 48 | 111 | 0.0 | 1.0 | 0.00 | 0.18 | 0.18 | 94 | 1013.4 |
| 20260507114029 | 48 | 105 | 0.0 | 0.0 | 0.00 | 0.18 | 0.18 | 94 | 1013.5 |
| 20260507113526 | 48 | 106 | 0.0 | 0.0 | 0.00 | 0.18 | 0.18 | 94 | 1013.3 |
| 20260507113024 | 47 | 89 | 0.0 | 1.0 | 0.00 | 0.18 | 0.18 | 94 | 1013.2 |
| 20260507112521 | 47 | 96 | 0.0 | 0.0 | 0.00 | 0.18 | 0.18 | 94 | 1013.1 |
| 20260507112018 | 48 | 106 | 0.0 | 0.0 | 0.00 | 0.18 | 0.18 | 94 | 1012.8 |
| 20260507111515 | 48 | 107 | 0.0 | 0.0 | 0.00 | 0.18 | 0.18 | 94 | 1013.1 |
| 20260507111011 | 47 | 100 | 0.0 | 0.0 | 0.00 | 0.18 | 0.18 | 94 | 1013.3 |
| 20260507110508 | 47 | 99 | 0.0 | 0.0 | 0.00 | 0.18 | 0.18 | 94 | 1013.2 |
| 20260507110005 | 47 | 92 | 0.0 | 1.0 | 0.00 | 0.18 | 0.18 | 94 | 1012.9 |
| 20260507105501 | 47 | 94 | 0.0 | 1.0 | 0.00 | 0.18 | 0.18 | 94 | 1012.8 |
| 20260507104957 | 47 | 81 | 0.0 | 1.0 | 0.00 | 0.18 | 0.18 | 94 | 1012.7 |
| 20260507104455 | 47 | 89 | 0.0 | 1.0 | 0.00 | 0.18 | 0.18 | 94 | 1012.5 |
| 20260507103950 | 47 | 88 | 0.0 | 0.0 | 0.00 | 0.18 | 0.18 | 94 | 1012.7 |
| 20260507103447 | 47 | 86 | 0.0 | 1.0 | 0.00 | 0.18 | 0.18 | 94 | 1012.6 |
| 20260507102943 | 47 | 91 | 0.0 | 1.0 | 0.00 | 0.18 | 0.18 | 94 | 1012.6 |
| 20260507102440 | 47 | 95 | 1.0 | 1.0 | 0.00 | 0.18 | 0.18 | 94 | 1012.2 |
| 20260507101937 | 47 | 81 | 0.0 | 1.0 | 0.00 | 0.18 | 0.18 | 94 | 1012.3 |
| 20260507101432 | 47 | 96 | 0.0 | 0.0 | 0.00 | 0.18 | 0.18 | 94 | 1012.2 |
| 20260507100928 | 47 | 100 | 0.0 | 0.0 | 0.00 | 0.18 | 0.18 | 94 | 1012.2 |
| 20260507100426 | 48 | 96 | 0.0 | 0.0 | 0.00 | 0.18 | 0.18 | 94 | 1012.1 |
| 20260507095924 | 48 | 94 | 0.0 | 1.0 | 0.00 | 0.18 | 0.18 | 94 | 1012.3 |
| 20260507095421 | 48 | 97 | 0.0 | 1.0 | 0.00 | 0.18 | 0.18 | 94 | 1012.3 |
| 20260507094918 | 48 | 118 | 0.0 | 0.0 | 0.00 | 0.18 | 0.18 | 94 | 1012.4 |
| 20260507094414 | 48 | 120 | 0.0 | 2.0 | 0.00 | 0.18 | 0.18 | 94 | 1012.0 |
| 20260507093911 | 48 | 104 | 0.0 | 2.0 | 0.00 | 0.18 | 0.18 | 94 | 1012.1 |
| 20260507093409 | 48 | 119 | 1.0 | 1.0 | 0.00 | 0.18 | 0.18 | 94 | 1012.2 |
| 20260507092908 | 48 | 85 | 1.0 | 1.0 | 0.00 | 0.18 | 0.18 | 94 | 1012.0 |
| 20260507092403 | 48 | 60 | 2.0 | 3.0 | 0.00 | 0.18 | 0.18 | 94 | 1011.8 |
| 20260507091900 | 48 | 79 | 1.0 | 7.0 | 0.00 | 0.18 | 0.18 | 94 | 1012.3 |
| 20260507091356 | 48 | 74 | 1.0 | 3.0 | 0.00 | 0.18 | 0.18 | 94 | 1011.9 |
| 20260507090852 | 48 | 95 | 0.0 | 1.0 | 0.00 | 0.18 | 0.18 | 94 | 1012.0 |
| 20260507090349 | 48 | 57 | 1.0 | 5.0 | 0.00 | 0.18 | 0.18 | 94 | 1011.9 |
| 20260507085846 | 49 | 71 | 0.0 | 2.0 | 0.00 | 0.18 | 0.18 | 94 | 1011.7 |
| 20260507085343 | 49 | 88 | 1.0 | 1.0 | 0.05 | 0.18 | 0.18 | 94 | 1012.2 |
| 20260507084840 | 48 | 73 | 1.0 | 1.0 | 0.05 | 0.18 | 0.18 | 94 | 1011.7 |
| 20260507084336 | 49 | 5 | 0.0 | 2.0 | 0.00 | 0.17 | 0.17 | 94 | 1012.0 |
| 20260507083834 | 49 | 60 | 2.0 | 3.0 | 0.07 | 0.17 | 0.17 | 94 | 1011.9 |
| 20260507083330 | 49 | 85 | 0.0 | 1.0 | 0.12 | 0.17 | 0.17 | 94 | 1012.1 |
| 20260507082826 | 49 | 94 | 1.0 | 1.0 | 0.05 | 0.16 | 0.16 | 94 | 1011.9 |
| 20260507082322 | 49 | 56 | 2.0 | 2.0 | 0.07 | 0.15 | 0.15 | 94 | 1012.1 |
| 20260507081819 | 49 | 95 | 0.0 | 1.0 | 0.05 | 0.14 | 0.14 | 94 | 1012.2 |
| 20260507081315 | 49 | 77 | 0.0 | 0.0 | 0.12 | 0.14 | 0.14 | 94 | 1012.0 |
| 20260507080812 | 49 | 92 | 0.0 | 2.0 | 0.14 | 0.13 | 0.13 | 94 | 1012.1 |
| 20260507080308 | 49 | 91 | 0.0 | 1.0 | 0.07 | 0.12 | 0.12 | 94 | 1012.1 |
| 20260507075803 | 49 | 93 | 1.0 | 1.0 | 0.00 | 0.11 | 0.11 | 94 | 1012.3 |
| 20260507075300 | 49 | 93 | 0.0 | 0.0 | 0.05 | 0.11 | 0.11 | 94 | 1012.3 |
| 20260507074756 | 50 | 66 | 0.0 | 1.0 | 0.05 | 0.11 | 0.11 | 94 | 1012.0 |
| 20260507074255 | 50 | 99 | 0.0 | 1.0 | 0.00 | 0.10 | 0.10 | 94 | 1012.1 |
| 20260507073751 | 50 | 88 | 1.0 | 2.0 | 0.00 | 0.10 | 0.10 | 94 | 1012.3 |
| 20260507073248 | 50 | 67 | 0.0 | 3.0 | 0.07 | 0.10 | 0.10 | 94 | 1012.3 |
| 20260507072746 | 50 | 96 | 0.0 | 1.0 | 0.07 | 0.10 | 0.10 | 94 | 1012.0 |
| 20260507072243 | 50 | 55 | 1.0 | 2.0 | 0.00 | 0.09 | 0.09 | 94 | 1012.0 |
| 20260507071740 | 50 | 98 | 0.0 | 1.0 | 0.05 | 0.09 | 0.09 | 94 | 1012.1 |
| 20260507071236 | 50 | 78 | 0.0 | 1.0 | 0.05 | 0.09 | 0.09 | 94 | 1011.9 |
| 20260507070733 | 50 | 83 | 1.0 | 1.0 | 0.07 | 0.08 | 0.08 | 94 | 1011.8 |
| 20260507070230 | 50 | 65 | 1.0 | 2.0 | 0.12 | 0.08 | 0.08 | 94 | 1012.2 |
| 20260507065727 | 50 | 68 | 0.0 | 1.0 | 0.12 | 0.07 | 0.07 | 94 | 1012.2 |
| 20260507065224 | 51 | 88 | 1.0 | 2.0 | 0.12 | 0.06 | 0.06 | 94 | 1012.4 |
| 20260507064721 | 50 | 96 | 0.0 | 1.0 | 0.05 | 0.05 | 0.05 | 94 | 1012.0 |
| 20260507064220 | 51 | 78 | 0.0 | 1.0 | 0.00 | 0.04 | 0.04 | 93 | 1011.9 |
| 20260507063717 | 51 | 130 | 0.0 | 1.0 | 0.07 | 0.04 | 0.04 | 94 | 1011.6 |
| 20260507063213 | 51 | 130 | 2.0 | 5.0 | 0.07 | 0.04 | 0.04 | 93 | 1011.8 |
| 20260507062710 | 51 | 75 | 0.0 | 1.0 | 0.00 | 0.03 | 0.03 | 94 | 1011.3 |
| 20260507062208 | 51 | 125 | 0.0 | 1.0 | 0.00 | 0.03 | 0.03 | 93 | 1011.4 |
| 20260507061706 | 51 | 49 | 1.0 | 3.0 | 0.00 | 0.03 | 0.03 | 93 | 1011.7 |
| 20260507061203 | 51 | 95 | 0.0 | 0.0 | 0.00 | 0.03 | 0.03 | 93 | 1011.7 |
| 20260507060701 | 51 | 115 | 1.0 | 1.0 | 0.00 | 0.03 | 0.03 | 93 | 1012.0 |
| 20260507060157 | 51 | 76 | 0.0 | 1.0 | 0.05 | 0.03 | 0.03 | 93 | 1011.7 |
| 20260507055653 | 51 | 68 | 1.0 | 2.0 | 0.12 | 0.03 | 0.03 | 93 | 1011.8 |
| 20260507055149 | 52 | 70 | 1.0 | 1.0 | 0.07 | 0.02 | 0.02 | 93 | 1011.3 |
| 20260507054645 | 52 | 68 | 1.0 | 5.0 | 0.00 | 0.01 | 0.01 | 93 | 1011.4 |
| 20260507054142 | 52 | 86 | 1.0 | 1.0 | 0.00 | 0.01 | 0.01 | 93 | 1011.1 |
| 20260507053641 | 52 | 103 | 1.0 | 2.0 | 0.05 | 0.01 | 0.01 | 93 | 1010.9 |
| 20260507053138 | 52 | 70 | 1.0 | 2.0 | 0.05 | 0.01 | 0.01 | 93 | 1011.3 |
| 20260507052637 | 52 | 68 | 1.0 | 1.0 | 0.00 | 0.00 | 0.00 | 93 | 1011.3 |
| 20260507052132 | 53 | 61 | 2.0 | 3.0 | 0.00 | 0.00 | 0.00 | 93 | 1011.5 |
| 20260507051630 | 53 | 70 | 1.0 | 6.0 | 0.00 | 0.00 | 0.00 | 93 | 1011.5 |
| 20260507051127 | 53 | 97 | 1.0 | 2.0 | 0.00 | 0.00 | 0.00 | 93 | 1011.5 |
| 20260507050624 | 53 | 55 | 1.0 | 3.0 | 0.00 | 0.00 | 0.00 | 93 | 1011.8 |
| 20260507050120 | 53 | 80 | 1.0 | 2.0 | 0.00 | 0.00 | 0.00 | 93 | 1011.2 |
| 20260507045617 | 53 | 69 | 3.0 | 3.0 | 0.00 | 0.00 | 0.00 | 93 | 1011.1 |
| 20260507045114 | 54 | 86 | 3.0 | 3.0 | 0.00 | 0.00 | 0.00 | 94 | 1011.7 |
| 20260507044611 | 54 | 347 | 1.0 | 2.0 | 0.00 | 0.00 | 0.00 | 94 | 1011.5 |
| 20260507044108 | 54 | 93 | 0.0 | 3.0 | 0.00 | 0.00 | 0.00 | 94 | 1011.7 |
| 20260507043603 | 54 | 154 | 0.0 | 1.0 | 0.00 | 0.00 | 0.00 | 94 | 1011.3 |
| 20260507043101 | 54 | 49 | 1.0 | 3.0 | 0.00 | 0.00 | 0.00 | 94 | 1011.4 |
| 20260507042556 | 54 | 71 | 1.0 | 2.0 | 0.00 | 0.00 | 0.00 | 94 | 1011.9 |
| 20260507042052 | 54 | 98 | 0.0 | 2.0 | 0.00 | 0.00 | 0.00 | 94 | 1011.7 |
| 20260507041549 | 54 | 78 | 0.0 | 1.0 | 0.00 | 0.00 | 0.00 | 94 | 1011.6 |
| 20260507041046 | 54 | 72 | 1.0 | 2.0 | 0.00 | 0.00 | 0.00 | 94 | 1011.5 |
| 20260507040543 | 54 | 73 | 1.0 | 2.0 | 0.00 | 0.00 | 0.00 | 94 | 1011.7 |
| 20260507040039 | 54 | 31 | 1.0 | 3.0 | 0.00 | 0.00 | 0.00 | 94 | 1011.4 |
| 20260507035535 | 54 | 196 | 2.0 | 2.0 | 0.00 | 0.12 | 0.12 | 94 | 1011.4 |
| 20260507035032 | 54 | 92 | 1.0 | 2.0 | 0.00 | 0.12 | 0.12 | 94 | 1011.2 |
| 20260507034528 | 54 | 80 | 1.0 | 1.0 | 0.00 | 0.12 | 0.12 | 94 | 1011.4 |
| 20260507034026 | 54 | 65 | 0.0 | 1.0 | 0.00 | 0.12 | 0.12 | 94 | 1011.4 |
| 20260507033524 | 54 | 91 | 0.0 | 2.0 | 0.00 | 0.12 | 0.12 | 94 | 1011.2 |
| 20260507033021 | 54 | 84 | 0.0 | 1.0 | 0.00 | 0.12 | 0.12 | 94 | 1011.1 |
| 20260507032518 | 55 | 75 | 1.0 | 2.0 | 0.00 | 0.12 | 0.12 | 94 | 1011.1 |
| 20260507032014 | 55 | 96 | 0.0 | 2.0 | 0.00 | 0.12 | 0.12 | 94 | 1011.3 |
| 20260507031510 | 55 | 63 | 3.0 | 6.0 | 0.00 | 0.12 | 0.12 | 94 | 1011.4 |
| 20260507031008 | 55 | 82 | 0.0 | 2.0 | 0.00 | 0.12 | 0.12 | 95 | 1011.3 |
| 20260507030504 | 55 | 95 | 0.0 | 1.0 | 0.00 | 0.12 | 0.12 | 95 | 1011.4 |
| 20260507030002 | 55 | 95 | 1.0 | 3.0 | 0.00 | 0.12 | 0.12 | 95 | 1011.6 |
| 20260507025459 | 55 | 89 | 1.0 | 3.0 | 0.00 | 0.12 | 0.12 | 95 | 1011.6 |
| 20260507024957 | 55 | 76 | 1.0 | 1.0 | 0.00 | 0.12 | 0.12 | 95 | 1011.8 |
| 20260507024454 | 55 | 94 | 0.0 | 1.0 | 0.00 | 0.12 | 0.12 | 95 | 1011.7 |
| 20260507023950 | 55 | 99 | 0.0 | 2.0 | 0.00 | 0.12 | 0.12 | 95 | 1011.7 |
| 20260507023447 | 56 | 87 | 1.0 | 1.0 | 0.00 | 0.12 | 0.12 | 95 | 1011.7 |
| 20260507022944 | 56 | 74 | 1.0 | 2.0 | 0.00 | 0.12 | 0.12 | 95 | 1011.5 |
| 20260507022441 | 56 | 74 | 1.0 | 2.0 | 0.00 | 0.12 | 0.12 | 95 | 1011.5 |
| 20260507021936 | 56 | 83 | 1.0 | 1.0 | 0.00 | 0.12 | 0.12 | 95 | 1011.6 |
| 20260507021432 | 56 | 91 | 0.0 | 2.0 | 0.00 | 0.12 | 0.12 | 95 | 1011.5 |
| 20260507020930 | 56 | 66 | 1.0 | 2.0 | 0.00 | 0.12 | 0.12 | 95 | 1011.5 |
| 20260507020426 | 57 | 78 | 2.0 | 2.0 | 0.00 | 0.12 | 0.12 | 95 | 1011.4 |
| 20260507015923 | 57 | 68 | 1.0 | 1.0 | 0.00 | 0.12 | 0.12 | 95 | 1011.5 |
| 20260507015422 | 58 | 92 | 0.0 | 1.0 | 0.00 | 0.12 | 0.12 | 95 | 1011.4 |
| 20260507014918 | 58 | 107 | 1.0 | 2.0 | 0.00 | 0.12 | 0.12 | 95 | 1011.4 |
| 20260507014415 | 58 | 44 | 1.0 | 2.0 | 0.00 | 0.12 | 0.12 | 95 | 1011.2 |
| 20260507013911 | 58 | 111 | 0.0 | 0.0 | 0.00 | 0.12 | 0.12 | 95 | 1010.8 |
| 20260507013408 | 58 | 112 | 0.0 | 0.0 | 0.07 | 0.12 | 0.12 | 95 | 1011.2 |
| 20260507012906 | 58 | 105 | 0.0 | 0.0 | 0.07 | 0.12 | 0.12 | 95 | 1011.2 |
| 20260507012402 | 58 | 115 | 0.0 | 0.0 | 0.00 | 0.11 | 0.11 | 95 | 1011.0 |
| 20260507011859 | 58 | 117 | 0.0 | 0.0 | 0.00 | 0.11 | 0.11 | 95 | 1010.9 |
| 20260507011355 | 58 | 127 | 0.0 | 1.0 | 0.00 | 0.11 | 0.11 | 95 | 1010.9 |
| 20260507010849 | 58 | 127 | 0.0 | 0.0 | 0.00 | 0.11 | 0.11 | 95 | 1010.8 |
| 20260507010345 | 58 | 119 | 0.0 | 0.0 | 0.00 | 0.11 | 0.11 | 95 | 1010.9 |
| 20260507005843 | 58 | 123 | 0.0 | 0.0 | 0.00 | 0.11 | 0.11 | 95 | 1010.9 |
| 20260507005339 | 58 | 124 | 0.0 | 1.0 | 0.00 | 0.11 | 0.11 | 95 | 1010.9 |